|
Cosmos 2278 Rocket - Orbit
|
Indian Springs;
07:50:42
| Home | Info | Passes |
|
View from above orbital plane
|
View from above satellite
|
Ground track
|
The orbit data is extracted from the following two-line orbital elements,
1 23088U 94023B 13168.86737374 .00000031 00000-0 40951-4 0 6795
2 23088 071.0022 106.8145 0002901 199.7223 219.2220 14.14535161989033
| Epoch (UTC): | 17 June 2013 20:49:01 |
| Eccentricity: | 0.0002901 |
| inclination: | 71.0022° |
| perigee height: | 842 km |
| apogee height: | 846 km |
| right ascension of ascending node: | 106.8145° |
| argument of perigee: | 199.7223° |
| revolutions per day: | 14.14535161 |
| mean anomaly at epoch: | 219.2220° |
| orbit number at epoch: | 98903 |
The dashed part of the orbit path shows where the satellite is in the earth's shadow,
|
|